Time,TemperatureF,DewpointF,PressureIn,WindDirection,WindDirectionDegrees,WindSpeedMPH,WindSpeedGustMPH,Humidity,HourlyPrecipIn,Conditions,Clouds,dailyrainin,SoftwareType,DateUTC
2013-11-01 00:00:00,36.1,28.0,14.80,ESE,102,7.9,-999.0,72,0.00,,,-99.99,,2013-11-01 08:00:00,
2013-11-01 00:05:00,35.9,28.2,14.80,ENE,60,9.1,-999.0,73,0.00,,,-99.99,,2013-11-01 08:05:00,
2013-11-01 00:11:00,35.8,28.0,14.79,ENE,68,10.4,-999.0,73,0.00,,,-99.99,,2013-11-01 08:11:00,
2013-11-01 00:16:00,36.3,28.2,14.79,NE,46,10.3,-999.0,72,0.00,,,-99.99,,2013-11-01 08:16:00,
2013-11-01 00:21:00,36.1,28.2,14.79,NE,51,13.1,-999.0,72,0.00,,,-99.99,,2013-11-01 08:21:00,
2013-11-01 00:26:00,36.2,28.2,14.79,NE,56,9.6,-999.0,72,0.00,,,-99.99,,2013-11-01 08:26:00,
2013-11-01 00:31:00,36.1,28.3,14.79,NE,45,8.7,-999.0,73,0.00,,,-99.99,,2013-11-01 08:31:00,
2013-11-01 00:36:00,36.1,28.4,14.79,NE,49,10.8,-999.0,73,0.00,,,-99.99,,2013-11-01 08:36:00,
2013-11-01 00:41:00,36.2,28.4,14.79,NE,44,12.0,-999.0,72,0.00,,,-99.99,,2013-11-01 08:41:00,
2013-11-01 00:46:00,36.4,28.5,14.79,NE,43,12.2,-999.0,72,0.00,,,-99.99,,2013-11-01 08:46:00,
2013-11-01 00:51:00,36.2,28.5,14.79,NE,38,12.5,-999.0,73,0.00,,,-99.99,,2013-11-01 08:51:00,
2013-11-01 00:57:00,36.4,28.5,14.79,NE,39,16.9,-999.0,72,0.00,,,-99.99,,2013-11-01 08:57:00,
2013-11-01 01:03:00,36.2,28.5,14.79,NE,34,11.4,-999.0,73,0.00,,,-99.99,,2013-11-01 09:03:00,
2013-11-01 01:08:00,36.2,28.5,14.79,NNE,28,9.5,-999.0,73,0.00,,,-99.99,,2013-11-01 09:08:00,
2013-11-01 01:14:00,36.1,28.6,14.79,NE,36,11.0,-999.0,73,0.00,,,-99.99,,2013-11-01 09:14:00,
2013-11-01 01:20:00,36.1,28.6,14.79,NE,47,12.1,-999.0,73,0.00,,,-99.99,,2013-11-01 09:20:00,
2013-11-01 01:26:00,36.2,28.7,14.79,NE,44,13.0,-999.0,73,0.00,,,-99.99,,2013-11-01 09:26:00,
2013-11-01 01:32:00,36.1,28.6,14.79,ENE,58,12.9,-999.0,73,0.00,,,-99.99,,2013-11-01 09:32:00,
2013-11-01 01:37:00,36.2,28.7,14.79,NE,55,11.3,-999.0,74,0.00,,,-99.99,,2013-11-01 09:37:00,
2013-11-01 01:43:00,36.3,28.8,14.79,ENE,59,11.6,-999.0,73,0.00,,,-99.99,,2013-11-01 09:43:00,
2013-11-01 01:48:00,36.4,28.8,14.79,NE,51,11.7,-999.0,73,0.00,,,-99.99,,2013-11-01 09:48:00,
2013-11-01 01:53:00,36.2,28.8,14.79,ENE,63,13.0,-999.0,74,0.00,,,-99.99,,2013-11-01 09:53:00,
2013-11-01 01:59:00,36.4,28.8,14.79,NE,53,14.0,-999.0,73,0.00,,,-99.99,,2013-11-01 09:59:00,
2013-11-01 02:04:00,36.3,28.9,14.79,NE,52,11.7,-999.0,74,0.00,,,-99.99,,2013-11-01 10:04:00,
2013-11-01 02:09:00,36.4,28.9,14.79,NE,56,11.7,-999.0,73,0.00,,,-99.99,,2013-11-01 10:09:00,
2013-11-01 02:14:00,36.1,28.7,14.79,ENE,73,12.3,-999.0,74,0.00,,,-99.99,,2013-11-01 10:14:00,
2013-11-01 02:19:00,36.4,28.9,14.79,ENE,65,10.0,-999.0,74,0.00,,,-99.99,,2013-11-01 10:19:00,
2013-11-01 02:24:00,36.3,29.0,14.79,NE,37,8.8,-999.0,74,0.00,,,-99.99,,2013-11-01 10:24:00,
2013-11-01 02:29:00,36.4,28.9,14.79,ENE,61,12.8,-999.0,73,0.00,,,-99.99,,2013-11-01 10:29:00,
2013-11-01 02:34:00,36.4,28.9,14.79,ENE,62,17.2,-999.0,73,0.00,,,-99.99,,2013-11-01 10:34:00,
2013-11-01 02:39:00,36.4,28.8,14.79,NE,40,12.1,-999.0,73,0.00,,,-99.99,,2013-11-01 10:39:00,
2013-11-01 02:44:00,36.2,28.7,14.79,ENE,71,16.1,-999.0,73,0.00,,,-99.99,,2013-11-01 10:44:00,
2013-11-01 02:49:00,36.4,28.9,14.79,ENE,59,13.5,-999.0,74,0.00,,,-99.99,,2013-11-01 10:49:00,
2013-11-01 02:54:00,35.9,28.9,14.79,ENE,57,11.8,-999.0,75,0.00,,,-99.99,,2013-11-01 10:54:00,
2013-11-01 02:59:00,36.1,28.6,14.79,ENE,65,12.3,-999.0,74,0.00,,,-99.99,,2013-11-01 10:59:00,
2013-11-01 03:04:00,36.1,28.4,14.79,ENE,78,13.7,-999.0,73,0.00,,,-99.99,,2013-11-01 11:04:00,
2013-11-01 03:09:00,35.9,28.4,14.79,ENE,64,15.5,-999.0,73,0.00,,,-99.99,,2013-11-01 11:09:00,
2013-11-01 03:14:00,36.0,28.5,14.79,ENE,68,15.6,-999.0,74,0.00,,,-99.99,,2013-11-01 11:14:00,
2013-11-01 03:19:00,35.9,28.5,14.79,ENE,71,12.9,-999.0,74,0.00,,,-99.99,,2013-11-01 11:19:00,
2013-11-01 03:24:00,35.9,28.4,14.79,ENE,59,14.2,-999.0,73,0.00,,,-99.99,,2013-11-01 11:24:00,
2013-11-01 03:30:00,36.0,28.6,14.79,ENE,62,12.2,-999.0,74,0.00,,,-99.99,,2013-11-01 11:30:00,
2013-11-01 03:35:00,35.9,28.7,14.79,ENE,78,18.7,-999.0,74,0.00,,,-99.99,,2013-11-01 11:35:00,
2013-11-01 03:40:00,35.8,28.3,14.79,ENE,70,18.4,-999.0,73,0.00,,,-99.99,,2013-11-01 11:40:00,
2013-11-01 03:45:00,35.5,28.5,14.79,ENE,67,5.4,-999.0,75,0.00,,,-99.99,,2013-11-01 11:45:00,
2013-11-01 03:50:00,35.4,28.2,14.79,ENE,66,16.2,-999.0,74,0.00,,,-99.99,,2013-11-01 11:50:00,
2013-11-01 03:55:00,35.3,28.0,14.79,ENE,70,12.1,-999.0,74,0.00,,,-99.99,,2013-11-01 11:55:00,
2013-11-01 04:00:00,35.4,28.0,14.79,ENE,57,11.7,-999.0,74,0.00,,,-99.99,,2013-11-01 12:00:00,
2013-11-01 04:05:00,35.3,28.0,14.79,NE,51,10.2,-999.0,74,0.00,,,-99.99,,2013-11-01 12:05:00,
2013-11-01 04:10:00,35.3,27.9,14.80,NE,49,14.9,-999.0,74,0.00,,,-99.99,,2013-11-01 12:10:00,
2013-11-01 04:15:00,35.2,27.9,14.80,NE,53,17.8,-999.0,74,0.00,,,-99.99,,2013-11-01 12:15:00,
2013-11-01 04:21:00,35.3,27.9,14.80,NE,50,15.3,-999.0,74,0.00,,,-99.99,,2013-11-01 12:21:00,
2013-11-01 04:26:00,35.6,28.3,14.80,NE,54,16.4,-999.0,74,0.00,,,-99.99,,2013-11-01 12:26:00,
2013-11-01 04:31:00,35.5,28.1,14.80,ENE,60,16.0,-999.0,74,0.00,,,-99.99,,2013-11-01 12:31:00,
2013-11-01 04:36:00,35.5,28.2,14.80,NE,50,14.8,-999.0,74,0.00,,,-99.99,,2013-11-01 12:36:00,
2013-11-01 04:41:00,35.2,28.0,14.80,NE,44,17.5,-999.0,74,0.00,,,-99.99,,2013-11-01 12:41:00,
2013-11-01 04:46:00,35.3,28.0,14.80,ENE,71,13.4,-999.0,74,0.00,,,-99.99,,2013-11-01 12:46:00,
2013-11-01 04:51:00,35.0,28.1,14.80,ENE,61,7.9,-999.0,75,0.00,,,-99.99,,2013-11-01 12:51:00,
2013-11-01 04:56:00,35.0,28.3,14.80,ENE,65,9.9,-999.0,76,0.00,,,-99.99,,2013-11-01 12:56:00,
2013-11-01 05:01:00,35.3,28.3,14.80,ENE,70,12.5,-999.0,75,0.00,,,-99.99,,2013-11-01 13:01:00,
2013-11-01 05:06:00,35.0,28.3,14.80,ENE,70,9.0,-999.0,76,0.00,,,-99.99,,2013-11-01 13:06:00,
2013-11-01 05:12:00,35.1,28.5,14.80,NE,50,9.3,-999.0,76,0.00,,,-99.99,,2013-11-01 13:12:00,
2013-11-01 05:17:00,34.9,28.3,14.80,ENE,69,4.9,-999.0,76,0.00,,,-99.99,,2013-11-01 13:17:00,
2013-11-01 05:22:00,35.2,28.3,14.80,ENE,76,7.2,-999.0,75,0.00,,,-99.99,,2013-11-01 13:22:00,
2013-11-01 05:27:00,35.1,28.2,14.80,ENE,67,6.0,-999.0,75,0.00,,,-99.99,,2013-11-01 13:27:00,
2013-11-01 05:32:00,35.2,28.5,14.80,ENE,57,11.6,-999.0,76,0.00,,,-99.99,,2013-11-01 13:32:00,
2013-11-01 05:37:00,35.2,28.6,14.80,ENE,67,11.1,-999.0,76,0.00,,,-99.99,,2013-11-01 13:37:00,
2013-11-01 05:43:00,34.7,28.6,14.80,ENE,70,10.8,-999.0,77,0.00,,,-99.99,,2013-11-01 13:43:00,
2013-11-01 05:48:00,34.7,28.7,14.80,ENE,77,9.2,-999.0,78,0.00,,,-99.99,,2013-11-01 13:48:00,
2013-11-01 05:53:00,34.8,29.1,14.80,NE,51,8.1,-999.0,79,0.00,,,-99.99,,2013-11-01 13:53:00,
2013-11-01 05:58:00,34.5,29.1,14.80,NE,43,9.4,-999.0,80,0.00,,,-99.99,,2013-11-01 13:58:00,
2013-11-01 06:03:00,34.4,29.0,14.80,NE,56,7.8,-999.0,80,0.00,,,-99.99,,2013-11-01 14:03:00,
2013-11-01 06:08:00,34.4,29.2,14.80,NE,40,8.5,-999.0,80,0.00,,,-99.99,,2013-11-01 14:08:00,
2013-11-01 06:13:00,34.5,29.2,14.80,ENE,63,10.7,-999.0,80,0.00,,,-99.99,,2013-11-01 14:13:00,
2013-11-01 06:19:00,34.4,29.0,14.80,ENE,59,6.8,-999.0,80,0.00,,,-99.99,,2013-11-01 14:19:00,
2013-11-01 06:24:00,34.4,28.9,14.80,East,82,6.2,-999.0,79,0.00,,,-99.99,,2013-11-01 14:24:00,
2013-11-01 06:29:00,34.5,29.0,14.80,ENE,64,6.1,-999.0,80,0.00,,,-99.99,,2013-11-01 14:29:00,
2013-11-01 06:34:00,34.3,28.9,14.80,NE,47,3.2,-999.0,80,0.00,,,-99.99,,2013-11-01 14:34:00,
2013-11-01 06:40:00,34.4,29.0,14.80,East,86,6.6,-999.0,80,0.00,,,-99.99,,2013-11-01 14:40:00,
2013-11-01 06:45:00,34.4,28.8,14.80,ENE,66,8.4,-999.0,79,0.00,,,-99.99,,2013-11-01 14:45:00,
2013-11-01 06:50:00,34.4,28.8,14.80,ENE,72,5.9,-999.0,79,0.00,,,-99.99,,2013-11-01 14:50:00,
2013-11-01 06:55:00,34.4,28.8,14.80,ENE,76,5.7,-999.0,80,0.00,,,-99.99,,2013-11-01 14:55:00,
2013-11-01 07:00:00,34.4,28.9,14.80,ENE,57,7.6,-999.0,79,0.00,,,-99.99,,2013-11-01 15:00:00,
2013-11-01 07:05:00,34.3,28.8,14.80,NE,49,6.6,-999.0,79,0.00,,,-99.99,,2013-11-01 15:05:00,
2013-11-01 07:10:00,34.2,28.8,14.80,ENE,63,4.7,-999.0,80,0.00,,,-99.99,,2013-11-01 15:10:00,
2013-11-01 07:15:00,34.7,29.0,14.80,ENE,59,7.5,-999.0,79,0.00,,,-99.99,,2013-11-01 15:15:00,
2013-11-01 07:20:00,34.4,29.0,14.80,NE,53,12.1,-999.0,80,0.00,,,-99.99,,2013-11-01 15:20:00,
2013-11-01 07:25:00,34.1,28.9,14.80,NE,42,12.7,-999.0,81,0.00,,,-99.99,,2013-11-01 15:25:00,
2013-11-01 07:30:00,34.5,29.1,14.80,NE,48,10.4,-999.0,80,0.00,,,-99.99,,2013-11-01 15:30:00,
2013-11-01 07:35:00,34.2,28.9,14.80,NNE,33,9.9,-999.0,80,0.00,,,-99.99,,2013-11-01 15:35:00,
2013-11-01 07:40:00,34.4,29.0,14.80,NE,42,11.5,-999.0,80,0.00,,,-99.99,,2013-11-01 15:40:00,
2013-11-01 07:45:00,34.6,28.8,14.80,NE,49,13.1,-999.0,79,0.00,,,-99.99,,2013-11-01 15:45:00,
2013-11-01 07:50:00,34.1,28.6,14.80,NE,41,10.5,-999.0,80,0.00,,,-99.99,,2013-11-01 15:50:00,
2013-11-01 07:55:00,34.2,28.5,14.80,ENE,59,13.3,-999.0,79,0.00,,,-99.99,,2013-11-01 15:55:00,
2013-11-01 08:00:00,34.4,28.3,14.80,NE,50,11.4,-999.0,78,0.00,,,-99.99,,2013-11-01 16:00:00,
2013-11-01 08:05:00,34.3,28.5,14.80,ENE,57,9.0,-999.0,79,0.00,,,-99.99,,2013-11-01 16:05:00,
2013-11-01 08:10:00,34.1,28.3,14.79,ENE,65,7.0,-999.0,79,0.00,,,-99.99,,2013-11-01 16:10:00,
2013-11-01 08:15:00,34.4,28.5,14.79,East,80,4.4,-999.0,78,0.00,,,-99.99,,2013-11-01 16:15:00,
2013-11-01 08:20:00,34.1,28.3,14.79,ENE,71,7.0,-999.0,79,0.00,,,-99.99,,2013-11-01 16:20:00,
2013-11-01 08:25:00,34.5,28.2,14.79,ENE,71,11.1,-999.0,77,0.00,,,-99.99,,2013-11-01 16:25:00,
2013-11-01 08:30:00,34.5,28.5,14.79,ENE,68,6.6,-999.0,78,0.00,,,-99.99,,2013-11-01 16:30:00,
2013-11-01 08:35:00,34.2,28.2,14.79,NNE,30,6.2,-999.0,78,0.00,,,-99.99,,2013-11-01 16:35:00,
2013-11-01 08:40:00,34.4,28.4,14.79,ENE,74,9.0,-999.0,78,0.00,,,-99.99,,2013-11-01 16:40:00,
2013-11-01 08:45:00,34.3,28.1,14.79,East,81,11.9,-999.0,77,0.00,,,-99.99,,2013-11-01 16:45:00,
2013-11-01 08:50:00,34.0,28.0,14.79,East,99,5.8,-999.0,78,0.00,,,-99.99,,2013-11-01 16:50:00,
2013-11-01 08:56:00,34.1,28.1,14.79,East,85,9.9,-999.0,78,0.00,,,-99.99,,2013-11-01 16:56:00,
2013-11-01 09:01:00,35.1,27.9,14.79,ESE,115,6.8,-999.0,74,0.00,,,-99.99,,2013-11-01 17:01:00,
2013-11-01 09:07:00,34.3,28.0,14.79,East,82,9.0,-999.0,77,0.00,,,-99.99,,2013-11-01 17:07:00,
2013-11-01 09:12:00,34.0,27.8,14.79,ESE,109,5.3,-999.0,77,0.00,,,-99.99,,2013-11-01 17:12:00,
2013-11-01 09:17:00,34.5,27.9,14.79,East,81,7.9,-999.0,76,0.00,,,-99.99,,2013-11-01 17:17:00,
2013-11-01 09:23:00,34.1,27.7,14.79,ENE,77,6.5,-999.0,77,0.00,,,-99.99,,2013-11-01 17:23:00,
2013-11-01 09:28:00,34.2,27.8,14.79,ENE,76,6.1,-999.0,77,0.00,,,-99.99,,2013-11-01 17:28:00,
2013-11-01 09:33:00,34.5,27.6,14.79,ENE,73,9.2,-999.0,75,0.00,,,-99.99,,2013-11-01 17:33:00,
2013-11-01 09:38:00,34.4,27.5,14.79,ENE,78,9.5,-999.0,75,0.00,,,-99.99,,2013-11-01 17:38:00,
2013-11-01 09:43:00,34.7,27.5,14.79,East,82,6.4,-999.0,74,0.00,,,-99.99,,2013-11-01 17:43:00,
2013-11-01 09:49:00,34.9,27.6,14.79,ENE,68,5.0,-999.0,74,0.00,,,-99.99,,2013-11-01 17:49:00,
2013-11-01 09:54:00,35.2,27.3,14.79,East,92,5.3,-999.0,72,0.00,,,-99.99,,2013-11-01 17:54:00,
2013-11-01 10:00:00,35.4,27.5,14.79,NE,53,5.2,-999.0,72,0.00,,,-99.99,,2013-11-01 18:00:00,
2013-11-01 10:05:00,35.1,27.4,14.79,NE,46,8.6,-999.0,73,0.00,,,-99.99,,2013-11-01 18:05:00,
2013-11-01 10:10:00,35.2,27.5,14.79,NE,56,6.9,-999.0,73,0.00,,,-99.99,,2013-11-01 18:10:00,
2013-11-01 10:15:00,35.0,27.7,14.79,NE,45,5.7,-999.0,74,0.00,,,-99.99,,2013-11-01 18:15:00,
2013-11-01 10:20:00,34.9,27.6,14.79,NE,47,5.5,-999.0,74,0.00,,,-99.99,,2013-11-01 18:20:00,
2013-11-01 10:25:00,35.2,27.7,14.79,NE,39,7.8,-999.0,73,0.00,,,-99.99,,2013-11-01 18:25:00,
2013-11-01 10:30:00,35.4,27.6,14.79,NE,51,5.7,-999.0,73,0.00,,,-99.99,,2013-11-01 18:30:00,
2013-11-01 10:35:00,35.0,27.5,14.79,NE,39,7.2,-999.0,73,0.00,,,-99.99,,2013-11-01 18:35:00,
2013-11-01 10:40:00,35.0,27.8,14.79,NE,42,5.3,-999.0,74,0.00,,,-99.99,,2013-11-01 18:40:00,
2013-11-01 10:46:00,34.7,27.5,14.79,ENE,66,5.8,-999.0,74,0.00,,,-99.99,,2013-11-01 18:46:00,
2013-11-01 10:51:00,34.7,27.4,14.79,NE,55,7.6,-999.0,74,0.00,,,-99.99,,2013-11-01 18:51:00,
2013-11-01 10:56:00,34.8,27.6,14.79,NE,45,7.1,-999.0,74,0.00,,,-99.99,,2013-11-01 18:56:00,
2013-11-01 11:01:00,34.8,27.4,14.79,NE,39,9.1,-999.0,73,0.00,,,-99.99,,2013-11-01 19:01:00,
2013-11-01 11:06:00,34.5,27.2,14.79,NNE,32,9.2,-999.0,74,0.00,,,-99.99,,2013-11-01 19:06:00,
2013-11-01 11:12:00,34.5,27.1,14.79,NE,38,7.5,-999.0,74,0.00,,,-99.99,,2013-11-01 19:12:00,
2013-11-01 11:17:00,34.5,27.0,14.79,NE,42,9.6,-999.0,73,0.00,,,-99.99,,2013-11-01 19:17:00,
2013-11-01 11:22:00,34.8,27.3,14.79,NNE,28,4.2,-999.0,73,0.00,,,-99.99,,2013-11-01 19:22:00,
2013-11-01 11:27:00,35.0,27.2,14.79,NE,42,4.3,-999.0,72,0.00,,,-99.99,,2013-11-01 19:27:00,
2013-11-01 11:32:00,36.1,27.2,14.79,NNE,33,3.9,-999.0,69,0.00,,,-99.99,,2013-11-01 19:32:00,
2013-11-01 11:37:00,36.2,27.5,14.79,NNE,12,2.5,-999.0,70,0.00,,,-99.99,,2013-11-01 19:37:00,
2013-11-01 11:42:00,36.1,27.2,14.79,East,87,2.9,-999.0,69,0.00,,,-99.99,,2013-11-01 19:42:00,
2013-11-01 11:47:00,35.9,27.4,14.79,NE,50,6.5,-999.0,70,0.00,,,-99.99,,2013-11-01 19:47:00,
2013-11-01 11:52:00,35.9,27.3,14.79,ENE,65,2.9,-999.0,70,0.00,,,-99.99,,2013-11-01 19:52:00,
2013-11-01 11:57:00,35.9,27.8,14.79,NNE,18,3.5,-999.0,72,0.00,,,-99.99,,2013-11-01 19:57:00,
2013-11-01 12:02:00,35.9,27.7,14.79,NNE,28,7.0,-999.0,71,0.00,,,-99.99,,2013-11-01 20:02:00,
2013-11-01 12:07:00,36.1,27.5,14.80,NE,49,4.7,-999.0,70,0.00,,,-99.99,,2013-11-01 20:07:00,
2013-11-01 12:12:00,36.1,27.1,14.80,NE,54,4.9,-999.0,69,0.00,,,-99.99,,2013-11-01 20:12:00,
2013-11-01 12:17:00,36.2,27.5,14.80,NE,41,4.4,-999.0,70,0.00,,,-99.99,,2013-11-01 20:17:00,
2013-11-01 12:22:00,36.5,27.5,14.80,NE,42,3.4,-999.0,69,0.00,,,-99.99,,2013-11-01 20:22:00,
2013-11-01 12:27:00,36.5,27.4,14.80,NE,38,3.6,-999.0,69,0.00,,,-99.99,,2013-11-01 20:27:00,
2013-11-01 12:32:00,36.7,28.0,14.80,NNE,12,3.1,-999.0,70,0.00,,,-99.99,,2013-11-01 20:32:00,
2013-11-01 12:38:00,36.6,27.3,14.80,NNE,28,7.2,-999.0,68,0.00,,,-99.99,,2013-11-01 20:38:00,
2013-11-01 12:43:00,36.1,27.2,14.80,NNE,28,6.3,-999.0,69,0.00,,,-99.99,,2013-11-01 20:43:00,
2013-11-01 12:48:00,36.4,27.2,14.80,NE,44,4.9,-999.0,69,0.00,,,-99.99,,2013-11-01 20:48:00,
2013-11-01 12:53:00,36.7,27.4,14.80,NNW,348,1.2,-999.0,68,0.00,,,-99.99,,2013-11-01 20:53:00,
2013-11-01 12:59:00,36.5,26.6,14.80,NE,45,9.9,-999.0,67,0.00,,,-99.99,,2013-11-01 20:59:00,
2013-11-01 13:05:00,36.6,26.7,14.80,NE,43,8.0,-999.0,66,0.00,,,-99.99,,2013-11-01 21:05:00,
2013-11-01 13:10:00,36.7,27.1,14.80,NE,46,6.2,-999.0,67,0.00,,,-99.99,,2013-11-01 21:10:00,
2013-11-01 13:15:00,37.0,26.5,14.80,NE,40,10.6,-999.0,65,0.00,,,-99.99,,2013-11-01 21:15:00,
2013-11-01 13:20:00,37.0,26.6,14.80,NE,45,6.1,-999.0,65,0.00,,,-99.99,,2013-11-01 21:20:00,
2013-11-01 13:25:00,37.0,26.5,14.80,NNE,33,10.4,-999.0,65,0.00,,,-99.99,,2013-11-01 21:25:00,
2013-11-01 13:30:00,37.0,26.1,14.80,NE,43,7.4,-999.0,64,0.00,,,-99.99,,2013-11-01 21:30:00,
2013-11-01 13:35:00,36.8,26.1,14.80,ENE,60,9.6,-999.0,64,0.00,,,-99.99,,2013-11-01 21:35:00,
2013-11-01 13:41:00,37.6,26.1,14.80,NE,54,5.8,-999.0,62,0.00,,,-99.99,,2013-11-01 21:41:00,
2013-11-01 13:46:00,39.4,28.7,14.80,WSW,251,1.4,-999.0,65,0.00,,,-99.99,,2013-11-01 21:46:00,
2013-11-01 13:51:00,38.1,26.5,14.80,NNE,31,5.8,-999.0,62,0.00,,,-99.99,,2013-11-01 21:51:00,
2013-11-01 13:56:00,38.4,27.0,14.80,East,89,3.4,-999.0,63,0.00,,,-99.99,,2013-11-01 21:56:00,
2013-11-01 14:01:00,39.4,27.8,14.80,East,88,0.7,-999.0,62,0.00,,,-99.99,,2013-11-01 22:01:00,
2013-11-01 14:06:00,40.3,30.7,14.80,WSW,251,5.1,-999.0,68,0.00,,,-99.99,,2013-11-01 22:06:00,
2013-11-01 14:11:00,39.5,27.2,14.80,NE,51,3.2,-999.0,61,0.00,,,-99.99,,2013-11-01 22:11:00,
2013-11-01 14:16:00,39.5,26.8,14.80,NE,55,3.9,-999.0,60,0.00,,,-99.99,,2013-11-01 22:16:00,
2013-11-01 14:21:00,40.0,26.9,14.80,NE,45,2.7,-999.0,59,0.00,,,-99.99,,2013-11-01 22:21:00,
2013-11-01 14:26:00,40.0,29.5,14.80,NE,37,2.5,-999.0,65,0.00,,,-99.99,,2013-11-01 22:26:00,
2013-11-01 14:32:00,39.5,26.4,14.80,NE,40,3.1,-999.0,58,0.00,,,-99.99,,2013-11-01 22:32:00,
2013-11-01 14:37:00,39.8,29.6,14.80,West,260,1.2,-999.0,66,0.00,,,-99.99,,2013-11-01 22:37:00,
2013-11-01 14:42:00,40.7,29.4,14.80,SSE,154,1.4,-999.0,63,0.00,,,-99.99,,2013-11-01 22:42:00,
2013-11-01 14:47:00,40.4,27.2,14.80,NE,35,2.5,-999.0,59,0.00,,,-99.99,,2013-11-01 22:47:00,
2013-11-01 14:52:00,40.4,29.6,14.80,SSE,164,0.5,-999.0,65,0.00,,,-99.99,,2013-11-01 22:52:00,
2013-11-01 14:57:00,39.9,31.1,14.80,NW,321,3.9,-999.0,70,0.00,,,-99.99,,2013-11-01 22:57:00,
2013-11-01 15:02:00,39.1,29.3,14.80,NNW,347,4.0,-999.0,67,0.00,,,-99.99,,2013-11-01 23:02:00,
2013-11-01 15:07:00,40.3,30.0,14.80,NE,46,0.6,-999.0,66,0.00,,,-99.99,,2013-11-01 23:07:00,
2013-11-01 15:12:00,41.0,29.1,14.80,ESE,107,0.0,-999.0,62,0.00,,,-99.99,,2013-11-01 23:12:00,
2013-11-01 15:17:00,40.8,29.7,14.80,SW,233,0.1,-999.0,64,0.00,,,-99.99,,2013-11-01 23:17:00,
2013-11-01 15:22:00,40.5,29.8,14.80,East,95,0.1,-999.0,65,0.00,,,-99.99,,2013-11-01 23:22:00,
2013-11-01 15:28:00,39.5,28.9,14.80,ENE,63,0.0,-999.0,65,0.00,,,-99.99,,2013-11-01 23:28:00,
2013-11-01 15:33:00,39.8,28.6,14.80,West,273,3.9,-999.0,63,0.00,,,-99.99,,2013-11-01 23:33:00,
2013-11-01 15:38:00,40.4,29.8,14.80,South,172,1.3,-999.0,65,0.00,,,-99.99,,2013-11-01 23:38:00,
2013-11-01 15:43:00,39.4,29.6,14.80,West,260,1.8,-999.0,67,0.00,,,-99.99,,2013-11-01 23:43:00,
2013-11-01 15:48:00,39.8,29.9,14.80,South,187,0.9,-999.0,67,0.00,,,-99.99,,2013-11-01 23:48:00,
2013-11-01 15:53:00,40.3,29.9,14.80,NW,304,3.9,-999.0,66,0.00,,,-99.99,,2013-11-01 23:53:00,
2013-11-01 15:59:00,40.6,29.1,14.80,SW,225,0.9,-999.0,63,0.00,,,-99.99,,2013-11-01 23:59:00,
2013-11-01 16:05:00,40.2,29.2,14.80,West,280,0.0,-999.0,64,0.00,,,-99.99,,2013-11-02 00:05:00,
2013-11-01 16:10:00,39.3,28.8,14.80,WNW,291,0.9,-999.0,65,0.00,,,-99.99,,2013-11-02 00:10:00,
2013-11-01 16:15:00,39.9,29.7,14.80,South,170,0.0,-999.0,66,0.00,,,-99.99,,2013-11-02 00:15:00,
2013-11-01 16:20:00,39.8,29.1,14.80,SW,220,1.1,-999.0,65,0.00,,,-99.99,,2013-11-02 00:20:00,
2013-11-01 16:32:00,40.1,27.8,14.80,NNW,340,1.4,-999.0,61,0.00,,,-99.99,,2013-11-02 00:32:00,
2013-11-01 16:37:00,40.0,29.2,14.80,NNW,346,0.3,-999.0,64,0.00,,,-99.99,,2013-11-02 00:37:00,
2013-11-01 16:42:00,39.8,29.4,14.80,WNW,285,2.5,-999.0,66,0.00,,,-99.99,,2013-11-02 00:42:00,
2013-11-01 16:47:00,38.5,29.2,14.80,SW,229,4.9,-999.0,68,0.00,,,-99.99,,2013-11-02 00:47:00,
2013-11-01 16:52:00,38.8,29.1,14.80,West,264,2.2,-999.0,67,0.00,,,-99.99,,2013-11-02 00:52:00,
2013-11-01 16:57:00,38.5,29.5,14.80,SW,235,1.1,-999.0,69,0.00,,,-99.99,,2013-11-02 00:57:00,
2013-11-01 17:02:00,38.5,29.9,14.80,WSW,239,1.0,-999.0,70,0.00,,,-99.99,,2013-11-02 01:02:00,
2013-11-01 17:07:00,38.2,29.7,14.80,ENE,62,1.3,-999.0,71,0.00,,,-99.99,,2013-11-02 01:07:00,
2013-11-01 17:12:00,38.0,30.2,14.80,NW,325,0.7,-999.0,73,0.00,,,-99.99,,2013-11-02 01:12:00,
2013-11-01 17:17:00,37.6,29.6,14.80,WSW,257,0.3,-999.0,72,0.00,,,-99.99,,2013-11-02 01:17:00,
2013-11-01 17:22:00,37.1,30.1,14.80,ESE,117,0.0,-999.0,75,0.00,,,-99.99,,2013-11-02 01:22:00,
2013-11-01 17:27:00,37.3,30.5,14.80,NW,308,0.4,-999.0,76,0.00,,,-99.99,,2013-11-02 01:27:00,
2013-11-01 17:32:00,37.0,30.7,14.80,SW,229,2.4,-999.0,77,0.00,,,-99.99,,2013-11-02 01:32:00,
2013-11-01 17:37:00,37.0,30.8,14.80,North,7,2.2,-999.0,77,0.00,,,-99.99,,2013-11-02 01:37:00,
2013-11-01 17:42:00,36.9,30.7,14.80,West,279,0.7,-999.0,77,0.00,,,-99.99,,2013-11-02 01:42:00,
2013-11-01 17:47:00,36.9,30.6,14.80,SE,131,0.7,-999.0,77,0.00,,,-99.99,,2013-11-02 01:47:00,
2013-11-01 17:52:00,36.2,30.1,14.80,WSW,253,1.8,-999.0,78,0.00,,,-99.99,,2013-11-02 01:52:00,
2013-11-01 17:57:00,35.8,30.1,14.80,West,280,1.6,-999.0,79,0.00,,,-99.99,,2013-11-02 01:57:00,
2013-11-01 18:02:00,35.4,29.9,14.80,NE,38,0.9,-999.0,80,0.00,,,-99.99,,2013-11-02 02:02:00,
2013-11-01 18:07:00,35.2,30.1,14.80,South,175,0.1,-999.0,81,0.00,,,-99.99,,2013-11-02 02:07:00,
2013-11-01 18:12:00,35.0,30.4,14.80,NE,43,1.7,-999.0,83,0.00,,,-99.99,,2013-11-02 02:12:00,
2013-11-01 18:17:00,34.9,30.6,14.80,ENE,66,1.4,-999.0,84,0.00,,,-99.99,,2013-11-02 02:17:00,
2013-11-01 18:22:00,35.0,30.9,14.80,SSE,165,1.1,-999.0,84,0.00,,,-99.99,,2013-11-02 02:22:00,
2013-11-01 18:27:00,34.8,31.0,14.80,ESE,104,0.2,-999.0,85,0.00,,,-99.99,,2013-11-02 02:27:00,
2013-11-01 18:32:00,34.5,30.9,14.80,ENE,78,1.6,-999.0,86,0.00,,,-99.99,,2013-11-02 02:32:00,
2013-11-01 18:37:00,34.5,31.0,14.80,West,267,1.0,-999.0,86,0.00,,,-99.99,,2013-11-02 02:37:00,
2013-11-01 18:42:00,34.5,31.0,14.80,ENE,77,0.8,-999.0,86,0.00,,,-99.99,,2013-11-02 02:42:00,
2013-11-01 18:47:00,34.5,31.2,14.80,ENE,69,0.0,-999.0,87,0.00,,,-99.99,,2013-11-02 02:47:00,
2013-11-01 18:52:00,34.3,31.2,14.80,NNW,334,6.7,-999.0,88,0.00,,,-99.99,,2013-11-02 02:52:00,
2013-11-01 18:57:00,34.6,31.4,14.80,NW,323,7.9,-999.0,87,0.00,,,-99.99,,2013-11-02 02:57:00,
2013-11-01 19:02:00,34.7,31.5,14.80,SSE,149,1.8,-999.0,88,0.00,,,-99.99,,2013-11-02 03:02:00,
2013-11-01 19:07:00,35.2,31.5,14.80,WNW,300,7.7,-999.0,86,0.00,,,-99.99,,2013-11-02 03:07:00,
2013-11-01 19:12:00,34.9,31.2,14.80,WNW,298,10.1,-999.0,86,0.00,,,-99.99,,2013-11-02 03:12:00,
2013-11-01 19:17:00,35.5,31.6,14.80,WNW,285,10.1,-999.0,85,0.00,,,-99.99,,2013-11-02 03:17:00,
2013-11-01 19:22:00,35.0,31.4,14.80,NW,311,9.6,-999.0,86,0.00,,,-99.99,,2013-11-02 03:22:00,
2013-11-01 19:27:00,35.3,31.6,14.80,WSW,244,4.1,-999.0,86,0.00,,,-99.99,,2013-11-02 03:27:00,
2013-11-01 19:32:00,34.9,31.5,14.80,East,97,0.1,-999.0,87,0.00,,,-99.99,,2013-11-02 03:32:00,
2013-11-01 19:37:00,34.8,31.6,14.80,NNE,16,0.5,-999.0,87,0.00,,,-99.99,,2013-11-02 03:37:00,
2013-11-01 19:42:00,34.6,31.5,14.80,WSW,258,1.5,-999.0,88,0.00,,,-99.99,,2013-11-02 03:42:00,
2013-11-01 19:47:00,34.4,31.2,14.80,ESE,114,1.3,-999.0,87,0.00,,,-99.99,,2013-11-02 03:47:00,
2013-11-01 19:52:00,34.2,31.2,14.80,NNW,341,3.2,-999.0,88,0.00,,,-99.99,,2013-11-02 03:52:00,
2013-11-01 19:57:00,34.2,31.2,14.80,West,261,3.4,-999.0,88,0.00,,,-99.99,,2013-11-02 03:57:00,
2013-11-01 20:01:00,34.2,31.2,14.80,NNE,25,0.9,-999.0,88,0.00,,,-99.99,,2013-11-02 04:01:00,
2013-11-01 20:02:00,34.1,31.1,14.80,NE,54,0.3,-999.0,88,0.00,,,-99.99,,2013-11-02 04:02:00,
2013-11-01 20:03:00,34.2,31.1,14.80,WNW,299,0.5,-999.0,88,0.00,,,-99.99,,2013-11-02 04:03:00,
2013-11-01 20:05:00,34.2,31.1,14.80,WSW,258,0.4,-999.0,88,0.00,,,-99.99,,2013-11-02 04:05:00,
2013-11-01 20:06:00,34.2,31.2,14.80,ESE,105,0.3,-999.0,88,0.00,,,-99.99,,2013-11-02 04:06:00,
2013-11-01 20:08:00,34.2,31.2,14.80,SW,218,2.2,-999.0,88,0.00,,,-99.99,,2013-11-02 04:08:00,
2013-11-01 20:13:00,33.8,31.4,14.80,SW,215,0.1,-999.0,90,0.00,,,-99.99,,2013-11-02 04:13:00,
2013-11-01 20:18:00,33.5,30.8,14.80,West,263,3.1,-999.0,89,0.00,,,-99.99,,2013-11-02 04:18:00,
2013-11-01 20:23:00,33.8,30.7,14.80,WSW,240,4.7,-999.0,88,0.00,,,-99.99,,2013-11-02 04:23:00,
2013-11-01 20:28:00,34.4,30.7,14.80,NNW,332,2.2,-999.0,86,0.00,,,-99.99,,2013-11-02 04:28:00,
2013-11-01 20:33:00,34.3,30.2,14.80,NW,312,11.0,-999.0,84,0.00,,,-99.99,,2013-11-02 04:33:00,
2013-11-01 20:38:00,34.3,29.9,14.80,NNW,328,2.8,-999.0,83,0.00,,,-99.99,,2013-11-02 04:38:00,
2013-11-01 20:43:00,34.2,29.7,14.80,WNW,303,1.0,-999.0,83,0.00,,,-99.99,,2013-11-02 04:43:00,
2013-11-01 20:48:00,34.2,30.3,14.80,NW,304,9.5,-999.0,85,0.00,,,-99.99,,2013-11-02 04:48:00,
2013-11-01 20:53:00,34.2,30.4,14.80,West,268,9.1,-999.0,85,0.00,,,-99.99,,2013-11-02 04:53:00,
2013-11-01 20:58:00,34.1,30.2,14.80,West,266,0.8,-999.0,85,0.00,,,-99.99,,2013-11-02 04:58:00,
2013-11-01 21:03:00,34.1,29.2,14.80,ENE,77,0.1,-999.0,82,0.00,,,-99.99,,2013-11-02 05:03:00,
2013-11-01 21:08:00,34.2,29.2,14.80,WSW,258,2.5,-999.0,81,0.00,,,-99.99,,2013-11-02 05:08:00,
2013-11-01 21:13:00,34.2,29.3,14.80,West,275,7.8,-999.0,81,0.00,,,-99.99,,2013-11-02 05:13:00,
2013-11-01 21:18:00,34.7,28.9,14.80,WNW,299,8.1,-999.0,79,0.00,,,-99.99,,2013-11-02 05:18:00,
2013-11-01 21:23:00,34.7,28.7,14.80,NW,313,11.0,-999.0,78,0.00,,,-99.99,,2013-11-02 05:23:00,
2013-11-01 21:28:00,34.5,28.9,14.80,NW,305,11.3,-999.0,79,0.00,,,-99.99,,2013-11-02 05:28:00,
2013-11-01 21:33:00,34.5,28.8,14.80,WNW,300,13.8,-999.0,79,0.00,,,-99.99,,2013-11-02 05:33:00,
2013-11-01 21:38:00,34.8,28.8,14.80,NW,317,12.2,-999.0,78,0.00,,,-99.99,,2013-11-02 05:38:00,
2013-11-01 21:43:00,34.7,29.0,14.80,NW,323,11.1,-999.0,79,0.00,,,-99.99,,2013-11-02 05:43:00,
2013-11-01 21:48:00,34.6,28.6,14.80,NW,319,8.1,-999.0,78,0.00,,,-99.99,,2013-11-02 05:48:00,
2013-11-01 21:53:00,34.5,28.6,14.80,NW,319,10.4,-999.0,78,0.00,,,-99.99,,2013-11-02 05:53:00,
2013-11-01 21:58:00,34.5,28.8,14.80,NW,316,11.5,-999.0,79,0.00,,,-99.99,,2013-11-02 05:58:00,
2013-11-01 22:03:00,34.7,28.1,14.80,WNW,303,10.8,-999.0,76,0.00,,,-99.99,,2013-11-02 06:03:00,
2013-11-01 22:08:00,34.7,27.6,14.80,NW,321,9.4,-999.0,75,0.00,,,-99.99,,2013-11-02 06:08:00,
2013-11-01 22:13:00,34.2,27.2,14.80,WNW,287,7.4,-999.0,75,0.00,,,-99.99,,2013-11-02 06:13:00,
2013-11-01 22:18:00,34.3,27.3,14.80,NW,311,10.4,-999.0,75,0.00,,,-99.99,,2013-11-02 06:18:00,
2013-11-01 22:23:00,34.4,27.3,14.80,NW,312,12.8,-999.0,74,0.00,,,-99.99,,2013-11-02 06:23:00,
2013-11-01 22:28:00,34.0,27.5,14.80,WNW,294,12.6,-999.0,76,0.00,,,-99.99,,2013-11-02 06:28:00,
2013-11-01 22:33:00,34.5,27.5,14.80,NW,314,11.8,-999.0,75,0.00,,,-99.99,,2013-11-02 06:33:00,
2013-11-01 22:38:00,34.6,28.0,14.80,WNW,300,11.7,-999.0,76,0.00,,,-99.99,,2013-11-02 06:38:00,
2013-11-01 22:43:00,34.1,27.3,14.80,South,189,2.6,-999.0,75,0.00,,,-99.99,,2013-11-02 06:43:00,
2013-11-01 22:48:00,33.6,28.1,14.80,WSW,258,1.6,-999.0,79,0.00,,,-99.99,,2013-11-02 06:48:00,
2013-11-01 22:53:00,33.8,27.9,14.80,WNW,301,7.2,-999.0,78,0.00,,,-99.99,,2013-11-02 06:53:00,
2013-11-01 22:58:00,33.9,28.5,14.80,WNW,291,12.3,-999.0,80,0.00,,,-99.99,,2013-11-02 06:58:00,
2013-11-01 23:03:00,34.0,27.8,14.80,WNW,298,12.2,-999.0,77,0.00,,,-99.99,,2013-11-02 07:03:00,
2013-11-01 23:08:00,34.2,26.6,14.80,NW,311,11.9,-999.0,73,0.00,,,-99.99,,2013-11-02 07:08:00,
2013-11-01 23:13:00,34.4,27.4,14.80,NW,314,13.5,-999.0,75,0.00,,,-99.99,,2013-11-02 07:13:00,
2013-11-01 23:18:00,34.2,27.7,14.80,WNW,289,12.8,-999.0,76,0.00,,,-99.99,,2013-11-02 07:18:00,
2013-11-01 23:23:00,33.8,27.4,14.80,SSW,207,0.5,-999.0,77,0.00,,,-99.99,,2013-11-02 07:23:00,
2013-11-01 23:28:00,33.5,27.5,14.80,West,265,2.1,-999.0,78,0.00,,,-99.99,,2013-11-02 07:28:00,
2013-11-01 23:33:00,33.3,27.5,14.80,East,91,0.3,-999.0,78,0.00,,,-99.99,,2013-11-02 07:33:00,
2013-11-01 23:38:00,33.4,28.1,14.80,WSW,250,1.6,-999.0,80,0.00,,,-99.99,,2013-11-02 07:38:00,
2013-11-01 23:43:00,33.1,27.8,14.80,WNW,288,3.5,-999.0,80,0.00,,,-99.99,,2013-11-02 07:43:00,
2013-11-01 23:48:00,33.1,27.4,14.80,NW,308,9.5,-999.0,79,0.00,,,-99.99,,2013-11-02 07:48:00,
2013-11-01 23:53:00,33.5,28.3,14.80,NW,313,9.2,-999.0,80,0.00,,,-99.99,,2013-11-02 07:53:00,
2013-11-01 23:58:00,33.3,27.7,14.80,WNW,301,12.1,-999.0,79,0.00,,,-99.99,,2013-11-02 07:58:00,